Location: ???? ??????? ????????
(44.0655°N, 135.0497°E)
Time: 05:31:12
(UTC+00:00)

Daily predictions for brighter satellites

Satellite Brightness Start Highest point End
(mag) Time Altitude Azimuth Time Altitude Azimuth Time Altitude Azimuth
NOSS 3-3 (C) 4.0 11:04:57 10° SW 11:10:10 76° NW 11:16:21 10° NE
Cosmos 2208 Rocket 4.3 11:05:13 10° NNW 11:10:23 56° ENE 11:15:37 10° SE
Cosmos 2369 Rocket 2.9 11:05:31 10° SSE 11:10:35 34° ESE 11:15:39 10° NE
CZ-4C R/B 3.4 11:11:02 10° SE 11:12:52 13° ESE 11:14:49 10° E
Okean O Rocket 1.9 11:10:05 10° SSE 11:14:18 53° ENE 11:18:36 10° N
Cosmos 1606 2.2 11:13:25 10° N 11:16:30 79° W 11:19:32 10° S
BREEZE-M R/B 1.6 11:25:27 10° WNW 11:27:12 68° SSW 11:28:50 12° ESE
DELTA 2 R/B (1) 4.5 11:22:51 10° SSW 11:27:28 27° SSE 11:32:05 10° E
USA 186 3.1 11:25:13 10° SSW 11:27:40 31° W 11:30:10 10° NNW
NOSS 3-4 (A) 4.3 11:21:39 10° NNW 11:28:17 54° NE 11:35:58 10° ESE
NOSS 3-4 (C) 4.3 11:21:42 10° NNW 11:28:19 54° NE 11:35:58 10° ESE
Cosmos 773 Rocket 4.1 11:23:03 10° NNW 11:28:20 65° ENE 11:33:34 10° SSE
BlueWalker 3 4.4 11:29:41 10° NW 11:32:26 20° N 11:35:12 10° NE
CZ-4 R/B 3.6 11:33:07 10° SW 11:35:57 21° W 11:38:50 10° NW
Ariane Rocket 4.2 11:32:25 10° ESE 11:36:33 28° ENE 11:40:47 10° N
MetOp-B 4.3 11:35:24 10° S 11:40:45 75° WSW 11:46:08 10° NNW
CZ-4B R/B 3.9 11:36:34 10° S 11:41:47 69° WSW 11:46:56 10° NNW
Cosmos 1777 Rocket 3.9 11:39:49 10° S 11:44:59 70° ESE 11:50:10 10° NNE
Cosmos 1634 Rocket 4.1 11:39:59 10° N 11:46:11 82° W 11:52:20 10° S
NOSS 5 (C) 4.4 11:50:51 10° NW 11:54:06 70° SW 11:56:24 18° SSE
